Probability
0 0 0 0 0 0 0 0 0 0 0 0 0 0 0 0 0 0 0 0 0 0 0 0 0 0 0 0 0 0 0 0 0 0 0 0 0 0
0 0 0 0 0 0 0 0 0 0 0 0 0 0 0 0 0 0 0 0 0 0 0 0 0 0 0 0 0 0 0 0 0 0 0 0 0 0
0 0 0 0 0 0 0 0 0 0 0 0 0 0 0 0 0 0 0 0 0 0 0 0 0 0 0 0 0 0 0 0 0 0 0 0 0 0
0 0 0 0 0 0 0 0 0 0 0 0 0 0 0 0 0 0 0 0 0 0 0 0 0 0 0 0 0 0 0 0 0 0 0 0 0 0
0 0 0 0 0 0 0 0 0 0 0 0 0 0 0 0 0 0 0 0 0 0 0 0 0 0 0 0 0 0 0 0 0 0 0 0 0 0
0 0 0 0 0 0 0 0 0 0 0 0 0 0 0 0 0 0 0 0 0 0 0 0 0 0 0 0 0 0 0 0 0 0 0 0 0 0
0 0 0 0 0 0 0 0 0 0 0 0 0 0 0 0 0 0 0 0 0 0 0 0 0 0 0 0 0 0 0 0 0 0 0 0 0 0
0 0 0 0 0 0 0 0 0 0 0 0 0 0 0 0 0 0 0 0 0 0 0 0 0 0 0 0 0 0 0 0 0 0 0 0 0 0
0 0 0 0 0 0 0 0 0 0 0 0 0 0 0 0 0 0 0 0 0 0 0 0 0 0 0 0 0 0 0 0 0 0 0 0 0 0
0 0 0 0 0 0 0 0 0 0 0 0 0 0 0 0 0 0 0 0 0 0 0 0 0 0 0 0 0 0 0 0 0 0 0 0 0 0
0 0 0 0 0 0 0 0 0 0 0 0 0 0 0 0 0 0 0 0 0 0 0 0 0 0 0 0 0 0 0 0 0 0 0 0 0 0
0 0 0 0 0 0 0 0 0 0 0 0 0 0 0 0 0 0 0 0 0 0 0 0 0 0 0 0 0 0 0 0 0 0 0 0 0 0
0 0 0 0 0 0 0 0 0 0 0 0 0 0 0 0 0 0 0 0 0 0 0 0 0 0 0 0 0 0 0 0 0 0 0 0 0 0
0 0 0 0 0 0 0 0 0 0 0 0 0 0 0 0 0 0 0 0 0 0 0 0 0 0 0 0 0 0 0 0 0 0 0 0 0 0
0 0 0 0 0 0 0 0 0 0 0 0 0 0 0 0 0 0 0 0 0 0 0 0 0 0 0 0 0 0 0 0 0 0 0 0 0 0
0 0 0 0 0 0 0 0 0 0 0 0 0 0 0 0 0 0 0 0 0 0 0 0 0 0 0 0 0 0 0 0 0 0 0 0 0 0
0 0 0 0 0 0 0 0 0 0 0 0 0 0 0 0 0 0 0 0 0 0 0 0 0 0 0 0 0 0 0 0 0 0 0 0 0 0
0 0 0 0 0 0 0 0 0 0 0 0 0 0 0 0 0 0 0 0 0 0 0 0 0 0 0 0 0 0 0 0 0 0 0 0 0 0
0 0 0 0 0 0 0 0 0 0 0 0 0 0 0 0 0 0 0 0 0 0 0 0 0 0 0 0 0 0 0 0 0 0 0 0 0 0
0 0 0 0 0 0 0 0 0 0 0 0 0 0 0 0 0 0 0 0 0 0 0 0 0 0 0 0 0 0 0 0 0 0 0 0 0 0
0 0 0 0 0 0 0 0 0 0 0 0 0 0 0 0 0 0 0 0 0 0 0 0 0 0 0 0 0 0 0 0 0 0 0 0 0 0
0 0 0 0 0 0 0 0 0 0 0 0 0 0 0 0 0 0 0 0 0 0 0 0 0 0 0 0 0 0 0 0 0 0 0 0 0 0
0 0 0 0 0 0 0 0 0 0 0 0 0 0 0 0 0 0 0 0 0 0 0 0 0 0 0 0 0 0 0 0 0 0 0 0 0 0
Wind_Speed
2 2 2 1 1 1 1 2 2 3 4 2 2 2 2 2 3 3 3 6 7 7 7 8 8 8 7 8 8 8 8 9 9 9 9 9 9 9
1 1 1 1 1 1 2 2 2 3 4 3 3 3 3 3 4 3 4 7 7 8 8 8 8 8 7 7 8 8 8 8 8 9 9 9 9 9
1 2 2 1 1 1 1 2 2 2 5 4 3 3 3 3 3 3 3 4 4 7 8 8 8 8 8 7 7 8 8 8 8 8 8 9 9 9
2 2 2 1 1 2 2 2 3 3 4 5 4 3 3 3 3 3 3 3 3 6 8 8 8 8 8 7 7 7 7 8 8 8 8 8 9 9
2 3 2 2 2 2 2 3 3 3 3 4 4 3 3 3 3 3 3 3 3 5 6 7 7 8 8 7 7 7 7 7 7 7 8 8 8 9
2 2 3 3 3 3 3 3 3 3 3 3 4 3 3 3 2 3 4 3 3 3 5 5 6 7 8 7 7 7 6 7 7 7 7 7 8 8
2 2 3 3 4 3 3 3 3 3 3 3 3 3 3 2 3 2 4 4 4 3 3 3 4 4 5 6 6 6 6 6 6 6 7 7 7 7
2 2 3 3 3 4 5 4 4 4 4 3 3 4 4 4 3 3 3 4 4 2 3 5 3 4 4 3 5 6 6 6 6 7 7 7 7 7
2 2 2 2 2 3 4 5 4 6 6 4 5 5 5 4 4 4 4 4 5 4 4 6 3 4 4 4 7 7 7 6 6 7 7 7 7 7
3 3 3 3 3 3 3 3 3 3 5 4 4 5 5 4 4 4 5 4 5 3 3 4 3 4 4 4 7 7 6 6 7 7 7 7 7 6
2 2 3 3 5 5 3 3 3 3 4 5 5 6 7 7 5 3 3 3 4 3 2 2 3 4 4 4 4 6 6 7 8 8 8 7 6 5
2 2 4 5 6 6 3 3 4 4 3 3 3 4 4 4 5 3 3 4 3 3 2 1 2 3 4 3 2 3 4 7 8 8 7 7 6 3
2 2 2 5 6 6 5 3 5 4 2 2 2 2 2 2 2 2 2 3 4 4 2 2 2 2 3 4 3 3 3 3 3 4 6 7 6 4
3 2 3 5 6 5 4 4 4 3 1 1 2 2 2 2 2 2 2 3 4 5 5 4 4 3 4 5 5 3 3 3 3 3 3 5 5 5
2 4 5 5 4 3 3 4 3 1 1 2 2 3 2 2 2 2 2 2 3 4 5 5 5 5 4 5 5 4 4 3 3 2 2 2 3 2
1 2 3 3 3 2 2 2 2 1 2 2 2 2 2 2 2 2 2 2 3 3 3 3 4 5 5 5 6 6 4 3 3 3 3 3 2 2
1 0 0 1 1 1 1 1 1 1 1 2 2 2 2 2 3 2 2 2 2 4 4 3 3 3 5 5 5 5 4 4 3 3 2 3 3 3
1 1 1 1 1 2 2 2 2 2 2 2 2 2 2 2 3 3 2 2 3 3 3 3 3 3 3 3 6 5 4 4 3 2 2 3 4 3
1 1 1 2 2 2 2 2 3 3 2 2 2 2 2 2 2 3 3 3 3 3 3 3 2 2 3 5 5 3 3 3 2 2 3 3 5 5
1 2 2 2 2 2 3 3 3 2 2 2 2 2 2 2 2 3 3 3 3 3 3 2 2 2 3 4 5 5 5 4 3 3 3 2 3 5
2 2 3 3 2 2 2 2 2 3 3 2 2 3 2 2 3 3 3 4 4 3 4 4 3 3 2 2 3 4 4 5 5 4 3 2 3 2
3 3 3 2 2 2 2 2 2 2 3 3 3 3 2 2 3 3 3 3 3 4 4 4 3 2 1 3 5 5 5 5 5 7 6 6 3 3
3 3 3 3 3 2 2 3 3 3 3 3 3 3 3 3 3 3 3 3 3 4 4 3 2 1 2 3 4 4 5 5 4 3 3 5 6 8
Wind_Direction
232 223 226 233 223 232 230 212 210 258 264 253 261 262 274 268 284 274 275 289 293 295 296 295 297 289 285 286 287 288 289 290 293 297 298 299 298 297
241 231 239 241 228 229 232 238 231 231 254 261 269 288 293 298 298 289 276 290 290 292 295 294 297 290 282 283 286 286 286 287 291 294 296 298 300 301
256 240 249 244 228 227 232 234 238 236 255 275 275 290 288 291 297 291 283 273 279 291 294 295 293 294 288 288 287 288 289 290 291 292 294 295 297 297
256 257 261 254 246 240 233 236 240 241 243 269 282 286 284 282 281 286 294 290 279 290 292 292 291 295 291 288 288 288 289 289 288 290 293 294 294 295
245 252 259 253 257 260 252 246 248 255 245 255 274 283 288 286 294 293 290 288 292 292 290 291 293 295 293 289 288 287 287 287 288 289 291 294 293 293
252 253 253 243 246 251 251 249 252 261 257 251 267 281 287 285 289 300 307 309 304 298 286 288 295 296 289 287 286 284 283 286 289 289 290 292 293 292
264 260 258 255 256 257 258 257 252 258 267 260 268 281 282 281 285 293 292 309 302 290 290 290 288 280 275 274 275 275 277 282 287 288 290 292 293 293
261 273 270 253 263 275 278 275 260 252 258 262 268 262 270 273 284 283 293 306 301 308 310 296 284 276 270 258 275 279 278 282 284 285 288 288 287 286
244 259 270 280 279 274 283 288 279 271 258 253 262 268 270 267 269 278 277 276 280 290 300 289 280 275 276 273 282 280 279 280 283 285 286 286 286 282
240 242 252 266 259 264 270 278 279 277 269 257 250 266 268 268 263 265 272 281 285 281 266 279 291 282 288 275 274 276 279 286 289 291 292 289 285 277
251 248 248 248 255 265 258 259 278 283 290 283 281 282 285 288 287 286 278 281 288 289 273 263 288 298 286 268 266 272 281 286 288 289 288 287 288 287
260 255 254 256 261 267 246 238 259 272 278 295 297 301 296 293 294 273 261 263 271 282 269 274 293 318 301 281 271 271 273 277 282 284 285 286 289 286
252 254 250 262 271 277 276 250 257 278 273 269 280 286 289 282 280 273 262 253 256 262 273 293 281 285 277 294 296 276 268 274 280 282 280 280 282 286
244 251 253 265 277 289 291 282 293 300 265 266 276 281 289 292 289 285 275 269 264 267 273 265 265 266 278 286 287 290 283 278 275 276 275 277 284 297
248 262 272 273 286 299 302 306 305 268 253 263 269 277 284 283 286 290 295 291 283 273 271 263 257 264 260 267 278 279 290 283 269 269 273 265 265 260
280 285 300 304 307 316 317 314 299 269 254 258 270 284 295 294 290 288 288 298 302 298 282 273 268 255 260 263 266 273 270 266 271 272 274 273 266 250
188 242 328 314 315 319 320 311 298 284 264 264 271 282 286 288 292 292 282 288 277 290 306 309 295 273 259 263 266 260 267 266 260 263 265 273 265 250
168 188 236 248 259 271 280 289 281 277 275 271 264 264 273 284 296 302 288 276 276 282 289 298 312 323 322 286 242 250 259 262 266 262 260 265 273 267
176 204 230 243 248 252 256 259 265 270 269 261 254 260 269 277 284 288 290 285 282 281 285 289 291 286 298 300 299 259 253 265 272 269 253 251 265 274
194 214 234 240 239 241 249 256 265 271 265 261 259 256 257 262 271 274 277 278 284 288 289 281 265 260 255 272 286 295 287 264 252 257 263 275 279 285
225 228 232 233 236 239 245 252 256 262 263 260 258 258 253 252 261 268 274 280 279 281 282 283 274 275 278 289 285 286 286 284 274 259 248 263 285 290
222 228 234 232 231 234 238 242 253 258 261 258 258 258 261 254 256 263 266 270 270 270 275 283 289 288 269 256 270 282 296 305 303 296 274 252 236 232
220 224 229 230 231 229 228 232 239 251 252 253 255 256 254 262 262 260 261 262 269 277 283 290 296 282 268 258 269 278 285 296 300 306 295 286 282 279